Wind_Speed
8 9 8 7 6 5 5 5 5 6 7 6 6 6 6 6 5 4 4 5 7 9 11 13 15 17 19 21 23 24 26 28 29 30 32 33 34 35 37 38 39 40 41 42 43 43 44 45 45
13 13 12 11 11 10 9 9 9 9 8 7 7 6 6 5 6 6 7 10 12 14 16 17 19 21 23 25 26 28 29 30 31 33 34 35 37 38 39 41 42 44 45 46 47 48 49 49 50
17 16 15 14 14 13 12 11 10 10 9 8 7 6 5 6 8 10 12 14 16 17 19 21 22 24 26 27 29 30 32 33 35 36 38 40 41 43 44 45 47 48 49 50 51 52 52 53 54
18 17 16 15 14 13 13 12 11 10 8 6 5 5 7 9 12 14 16 17 19 20 22 24 25 27 28 30 32 34 36 38 40 42 44 46 47 48 50 51 53 54 55 56 57 58 58 58 58
18 17 17 16 15 14 12 11 9 7 5 5 6 7 9 13 15 17 18 19 21 22 24 26 28 30 32 35 37 39 42 44 46 49 51 53 54 56 57 59 61 62 63 64 65 65 65 65 65
18 17 16 14 13 11 9 7 6 5 6 8 10 11 13 16 18 19 20 21 23 25 27 29 32 34 37 39 42 44 47 50 52 55 57 60 62 64 66 67 69 71 72 73 73 73 73 73 73
15 13 12 10 9 7 6 6 6 8 9 11 13 14 16 17 18 20 21 23 25 27 30 32 35 38 40 43 45 48 51 54 56 59 61 64 66 69 72 74 76 78 80 80 81 81 81 80 80
10 9 7 6 5 5 6 7 8 10 11 13 14 15 17 18 20 21 23 25 28 30 33 36 39 42 44 47 49 52 54 57 60 63 66 68 71 74 78 81 83 86 87 88 89 90 89 89 87
6 4 4 5 6 7 9 9 11 12 13 14 15 16 18 19 21 23 25 28 31 34 38 41 44 47 49 51 54 56 59 62 65 69 72 75 78 82 85 88 91 93 94 96 97 97 97 96 94
3 4 6 7 9 10 11 12 13 14 14 15 16 17 18 20 22 24 28 31 35 38 42 45 48 49 51 54 57 60 63 67 70 73 76 80 83 87 91 94 97 99 100 101 101 101 100 99 98
7 8 9 10 12 12 13 13 13 14 15 16 17 18 20 22 24 27 31 35 38 42 46 48 49 51 53 56 59 63 66 70 74 77 80 84 88 93 97 100 101 102 102 101 100 99 99 98 97
11 12 12 13 13 13 13 13 14 15 16 17 19 20 22 24 27 31 35 39 42 45 48 49 51 53 55 59 62 66 70 73 77 80 85 90 94 99 102 103 104 102 100 98 96 94 92 91 90
12 13 13 13 13 13 13 14 15 16 17 19 21 23 25 28 31 34 38 42 45 48 49 50 52 55 59 62 66 69 73 76 80 84 90 95 99 102 103 102 99 97 94 91 89 87 85 84 83
12 12 12 12 12 13 14 15 16 17 19 21 23 26 28 31 34 38 41 44 47 48 49 51 54 58 61 65 69 72 75 79 83 89 94 99 101 101 99 95 91 87 85 83 82 81 80 78 77
11 11 12 12 13 14 15 16 17 19 22 24 26 28 31 34 37 40 43 45 47 48 50 52 56 60 64 67 70 74 77 82 87 92 97 99 99 96 91 87 84 82 81 80 78 76 74 72 71
11 12 12 13 14 15 16 18 19 22 24 26 28 30 33 36 39 41 43 44 46 48 51 54 58 62 66 69 72 75 80 85 90 94 97 96 93 88 84 82 81 79 77 74 72 69 67 66 65
11 12 13 14 15 17 18 20 21 24 26 28 30 32 35 37 39 41 42 44 46 49 52 56 60 64 68 70 74 78 83 87 92 95 94 91 86 82 80 80 78 76 73 71 70 68 66 64 63
12 13 14 16 17 18 20 22 23 25 27 28 30 33 35 37 38 40 42 44 47 50 54 58 62 66 68 71 75 80 85 89 92 93 90 85 81 79 78 77 75 73 72 72 72 71 70 69 67
12 14 15 17 19 19 21 23 25 26 27 28 30 32 33 35 38 40 42 45 48 52 56 60 63 66 69 72 76 81 85 89 91 90 85 81 78 77 77 75 73 73 74 74 73 72 71 71 72
13 15 16 18 20 20 21 23 25 25 25 27 28 30 32 35 38 41 43 46 50 54 57 61 64 67 70 73 77 82 86 89 89 85 81 78 77 77 76 74 74 74 75 73 70 69 67 67 69
13 15 17 18 19 20 20 21 22 22 24 26 28 31 34 37 40 42 45 48 51 55 58 62 65 67 70 74 78 83 87 88 86 81 77 76 76 76 75 74 74 76 74 69 65 61 58 55 56
13 15 16 18 19 20 20 20 22 23 25 27 30 32 36 39 41 44 46 49 53 56 59 63 65 68 71 75 79 84 86 86 83 78 75 75 76 75 74 74 75 74 70 64 58 54 50 46 43
12 14 16 17 18 19 21 21 23 25 27 29 32 35 37 40 42 45 47 50 53 56 60 63 66 69 72 75 80 84 85 83 80 76 74 75 75 74 73 74 74 71 65 57 52 49 44 39 33
11 13 14 16 18 20 22 23 26 28 30 32 34 37 39 41 43 45 48 51 53 57 60 64 66 69 72 76 80 83 84 81 77 74 73 74 73 72 72 73 72 67 58 51 46 43 39 35 29
9 12 14 17 19 21 23 25 28 30 33 36 38 40 42 43 45 47 49 51 54 57 61 64 67 69 72 76 80 83 82 79 75 72 72 73 72 70 71 73 70 63 52 45 40 37 35 33 29
8 11 15 18 19 21 23 26 29 32 35 38 41 43 46 47 48 49 51 53 55 58 61 64 67 69 72 76 80 82 80 76 73 71 71 72 71 70 71 72 69 60 49 40 35 31 29 28 26
8 11 14 16 18 21 24 27 30 34 37 40 43 46 49 52 53 53 54 55 57 59 62 65 67 69 72 76 79 81 79 75 71 70 71 71 70 69 70 72 69 60 49 39 33 28 25 23 21
7 10 13 16 20 22 25 28 32 35 38 41 45 48 51 55 56 57 57 57 58 60 63 65 67 69 72 76 78 79 77 74 70 69 69 69 69 68 69 72 69 60 50 39 31 27 23 20 17
7 10 14 17 21 24 27 30 32 35 38 42 46 49 53 56 59 60 61 60 60 61 63 65 67 69 72 75 78 78 76 72 69 68 68 68 68 68 69 71 70 62 52 40 31 27 23 21 18
9 11 14 17 19 23 26 30 34 36 40 43 46 50 54 57 61 63 64 64 63 63 64 66 67 68 71 75 77 77 75 72 68 67 66 66 66 67 68 70 70 65 55 44 33 28 24 22 19
Wind_Direction
113 116 118 116 115 112 115 114 109 100 92 86 81 76 73 66 55 43 29 4 345 334 327 322 317 313 308 305 302 300 298 296 295 294 292 291 290 288 286 285 283 282 280 278 277 276 274 273 270
102 104 106 107 105 104 106 107 106 102 100 95 91 84 73 53 27 8 351 341 335 329 323 317 313 309 306 304 302 301 299 298 297 295 294 293 291 290 288 286 285 283 281 279 277 276 274 272 271
99 100 104 106 107 109 110 106 106 104 99 94 86 66 38 11 355 346 341 336 331 324 319 315 312 311 309 307 306 305 303 302 300 298 296 295 293 292 290 288 287 285 283 282 280 277 275 273 271
98 101 104 107 110 109 107 105 102 99 91 75 50 21 2 350 344 340 336 331 326 322 319 317 316 314 313 311 310 309 307 305 302 300 298 297 295 293 291 289 288 287 285 283 281 279 277 275 272
98 101 104 106 106 103 101 98 93 83 62 33 11 356 346 341 339 336 332 328 325 323 321 319 317 317 316 314 313 311 309 307 305 303 301 299 297 295 293 291 290 288 287 285 282 280 278 276 274
100 98 101 100 97 93 88 80 65 36 12 358 351 345 340 337 334 331 328 326 325 323 321 320 319 319 317 315 313 312 311 309 307 305 303 301 299 297 295 294 292 290 288 286 283 281 278 275 273
98 95 93 88 82 74 56 35 11 355 346 341 339 336 334 332 330 328 326 325 324 322 321 321 320 318 316 314 312 311 310 308 307 305 303 301 300 298 296 294 292 290 288 286 283 281 278 276 273
94 89 80 68 50 29 10 354 341 335 332 333 333 331 330 330 329 327 325 325 324 323 323 322 320 317 315 314 313 311 310 308 307 306 304 302 300 298 297 295 293 291 289 287 285 282 280 277 274
79 66 33 9 354 346 341 334 329 327 327 327 328 328 327 326 325 325 324 324 324 324 324 322 320 318 316 315 313 312 311 310 308 307 306 304 302 300 298 297 295 293 291 289 287 285 282 279 276
7 347 341 336 333 330 327 324 322 322 322 322 323 324 324 324 324 324 323 323 324 324 323 321 320 318 317 315 314 313 312 311 309 308 306 304 302 301 299 298 296 295 293 292 290 287 284 281 278
324 325 325 323 322 321 319 317 317 317 317 318 320 322 322 323 323 322 322 323 323 323 322 321 320 318 317 316 315 313 312 311 309 308 306 305 304 302 301 299 297 296 295 293 291 288 285 282 278
316 319 320 320 319 318 316 315 315 316 317 319 320 321 321 322 322 322 322 323 323 322 322 321 320 318 317 316 315 314 313 311 310 309 308 307 305 303 301 300 298 297 295 293 290 287 284 280 277
316 318 320 320 320 320 318 317 317 317 318 320 320 320 321 323 323 322 322 322 322 323 322 321 319 318 317 316 315 314 314 313 312 311 310 308 306 304 302 301 299 297 295 292 289 286 283 279 275
322 325 326 326 326 324 321 319 319 320 320 320 320 321 322 323 322 322 322 323 323 323 321 319 318 317 317 316 316 316 316 315 314 313 311 309 307 305 305 303 301 299 296 293 290 286 283 279 275
335 336 335 334 332 329 324 322 322 322 322 322 322 322 322 322 322 322 323 323 322 321 320 318 317 317 317 317 318 318 317 316 316 314 311 310 309 309 308 306 304 301 299 295 292 287 283 278 273
343 342 341 339 336 332 327 325 324 323 323 323 322 322 322 322 323 323 323 322 321 320 318 318 318 318 319 319 319 319 319 318 317 314 313 313 313 312 311 309 307 305 302 298 293 288 282 277 271
346 346 344 342 339 334 329 326 326 324 324 323 323 322 323 323 323 322 322 322 320 319 319 319 319 320 321 321 322 322 321 320 318 316 316 317 317 316 314 313 311 308 304 300 295 289 283 276 269
349 349 346 344 341 337 331 327 327 326 325 324 324 323 323 323 323 322 322 322 321 320 320 321 321 322 323 323 324 324 323 321 320 319 320 320 320 319 318 316 313 310 307 302 296 290 283 276 268
352 351 348 345 341 338 333 328 329 329 327 326 325 324 324 324 323 323 323 323 322 322 322 323 323 324 324 325 326 325 324 322 322 322 323 323 323 322 321 319 316 314 310 305 300 293 285 277 268
356 353 350 347 342 340 337 332 333 334 332 330 329 328 327 326 325 325 325 325 324 324 324 324 325 325 326 327 328 327 326 325 325 325 326 326 326 325 324 322 321 318 315 310 305 299 291 281 271
358 356 354 352 350 348 347 342 342 344 340 337 335 332 329 327 327 327 327 327 326 326 326 326 327 327 328 329 329 329 328 327 328 328 329 329 329 328 328 327 325 323 320 317 314 309 302 291 278
4 4 3 359 358 359 359 358 355 352 348 344 340 336 333 331 331 330 329 328 328 328 328 328 329 330 331 331 331 331 330 330 330 331 332 332 332 332 331 331 330 328 326 324 323 321 316 306 291
13 13 12 10 9 7 7 6 3 359 355 351 346 343 339 337 334 333 331 330 330 330 330 330 331 332 333 333 333 333 332 332 333 334 335 335 335 335 335 335 334 333 331 330 332 333 331 326 312
25 25 22 22 21 18 16 13 11 8 3 358 355 350 346 342 339 336 334 333 333 333 332 333 333 334 335 335 335 335 335 335 335 336 337 338 338 338 339 340 339 337 336 336 338 342 346 347 341
34 33 32 31 29 26 20 19 17 13 10 6 2 357 352 348 343 340 338 337 336 335 335 335 336 336 337 337 337 337 337 337 338 338 339 341 341 342 343 344 343 342 340 339 341 349 356 1 1
32 33 33 34 31 27 22 21 17 14 12 10 6 2 358 354 349 345 342 340 339 338 337 337 338 338 339 339 339 339 339 339 340 341 342 343 344 345 346 348 347 346 343 340 340 347 356 2 6
24 29 30 29 26 23 21 16 14 12 10 8 6 3 1 358 354 350 346 344 342 340 340 339 339 340 341 341 341 341 341 341 342 343 344 346 347 348 349 351 351 349 346 341 337 340 346 353 358
8 16 17 18 18 17 14 12 9 8 6 4 3 1 360 359 357 354 350 346 344 342 342 341 341 342 342 343 343 343 343 343 344 345 346 348 349 350 352 354 354 353 350 343 336 334 333 335 338
346 357 4 7 8 7 6 5 4 3 2 2 0 359 358 358 357 355 352 349 346 344 343 343 343 343 344 345 345 345 345 345 346 347 349 350 351 353 354 356 357 356 354 349 340 333 328 322 319
321 337 349 355 358 359 360 357 360 360 359 359 358 357 357 357 356 355 353 351 348 345 345 344 344 345 346 346 346 347 347 347 348 349 351 352 353 355 356 358 359 359 358 355 347 340 329 320 312
Height
5881 5882 5883 5885 5887 5887 5886 5887 5887 5887 5887 5886 5886 5886 5885 5885 5885 5886 5883 5881 5880 5878 5877 5875 5873 5871 5869 5866 5864 5862 5859 5857 5855 5852 5850 5848 5845 5843 5841 5839 5837 5836 5835 5834 5832 5831 5831 5831 5831
5883 5884 5886 5887 5887 5887 5888 5888 5888 5888 5888 5887 5887 5886 5886 5885 5884 5883 5882 5880 5878 5877 5875 5872 5870 5868 5865 5863 5860 5857 5855 5852 5849 5846 5843 5840 5838 5835 5833 5830 5828 5826 5825 5824 5823 5822 5821 5821 5821
5886 5886 5888 5888 5888 5889 5889 5889 5889 5888 5888 5888 5888 5887 5887 5885 5884 5882 5880 5878 5876 5874 5872 5869 5867 5864 5861 5858 5855 5852 5849 5845 5842 5839 5835 5832 5829 5826 5823 5820 5818 5816 5814 5812 5811 5810 5810 5810 5810
5889 5889 5890 5890 5889 5890 5890 5890 5889 5889 5889 5889 5888 5887 5886 5884 5882 5880 5878 5876 5873 5870 5868 5865 5862 5859 5856 5853 5849 5846 5842 5838 5834 5831 5827 5823 5819 5816 5812 5809 5806 5803 5801 5799 5798 5797 5796 5796 5796
5891 5892 5892 5891 5891 5891 5891 5891 5890 5890 5890 5889 5888 5886 5884 5883 5880 5878 5875 5872 5870 5867 5864 5860 5857 5854 5850 5846 5842 5838 5834 5830 5825 5821 5816 5811 5807 5803 5799 5795 5791 5788 5785 5783 5782 5780 5780 5779 5780
5895 5895 5895 5894 5893 5893 5892 5892 5891 5890 5889 5888 5886 5884 5882 5880 5878 5875 5872 5869 5866 5863 5859 5856 5852 5848 5844 5839 5835 5830 5825 5820 5815 5810 5804 5799 5793 5788 5783 5778 5774 5770 5767 5764 5762 5760 5760 5760 5761
5898 5897 5897 5896 5895 5894 5894 5892 5891 5890 5888 5886 5884 5882 5880 5878 5875 5872 5869 5866 5862 5859 5855 5851 5847 5842 5838 5833 5827 5822 5816 5810 5804 5798 5792 5785 5779 5772 5766 5760 5755 5750 5746 5742 5739 5737 5736 5736 5737
5899 5899 5897 5897 5896 5895 5893 5891 5890 5888 5886 5884 5882 5880 5878 5875 5872 5869 5865 5862 5858 5854 5849 5845 5840 5835 5829 5824 5818 5812 5805 5799 5792 5785 5778 5771 5763 5755 5748 5740 5733 5726 5720 5715 5711 5709 5708 5709 5709
5899 5900 5897 5897 5895 5894 5891 5890 5888 5886 5884 5882 5880 5878 5876 5873 5869 5866 5862 5858 5853 5848 5843 5838 5832 5826 5820 5813 5807 5800 5793 5786 5778 5770 5761 5753 5744 5735 5726 5716 5708 5699 5692 5685 5680 5677 5675 5675 5677
5899 5898 5897 5895 5894 5892 5890 5888 5886 5884 5882 5880 5878 5876 5873 5870 5866 5862 5858 5853 5848 5843 5838 5831 5825 5818 5811 5804 5796 5789 5781 5773 5764 5755 5745 5735 5725 5714 5703 5692 5681 5672 5663 5655 5648 5643 5640 5640 5641
5898 5896 5895 5893 5891 5889 5888 5886 5883 5882 5880 5878 5876 5873 5870 5866 5862 5858 5853 5848 5842 5836 5830 5824 5816 5809 5802 5795 5787 5779 5770 5760 5750 5739 5728 5717 5705 5692 5679 5666 5654 5643 5633 5625 5617 5611 5606 5604 5605
5896 5894 5893 5891 5889 5887 5885 5883 5881 5879 5878 5875 5872 5869 5866 5862 5858 5853 5848 5842 5836 5829 5823 5815 5808 5801 5793 5785 5777 5767 5757 5746 5735 5723 5710 5697 5683 5669 5654 5639 5626 5615 5605 5595 5588 5581 5576 5573 5571
5895 5892 5890 5888 5886 5885 5883 5881 5879 5877 5874 5872 5869 5866 5862 5858 5853 5848 5842 5835 5829 5822 5815 5807 5800 5792 5784 5775 5765 5755 5743 5731 5718 5705 5691 5676 5660 5644 5629 5614 5600 5588 5577 5567 5559 5552 5547 5543 5541
5893 5891 5889 5886 5885 5883 5880 5878 5876 5874 5871 5868 5865 5861 5857 5853 5847 5842 5835 5829 5821 5814 5807 5800 5792 5783 5774 5764 5753 5741 5729 5715 5701 5686 5670 5652 5635 5618 5602 5587 5574 5561 5550 5540 5532 5524 5519 5515 5513
5891 5889 5887 5885 5883 5880 5878 5876 5873 5871 5868 5865 5861 5857 5852 5847 5841 5835 5829 5822 5815 5808 5800 5792 5783 5774 5763 5752 5740 5727 5714 5699 5684 5667 5648 5629 5610 5593 5577 5562 5548 5536 5525 5514 5505 5497 5492 5488 5486
5889 5887 5885 5883 5880 5878 5877 5874 5871 5867 5864 5860 5856 5852 5846 5841 5835 5829 5822 5816 5808 5801 5793 5784 5774 5763 5751 5739 5726 5712 5698 5682 5664 5645 5625 5605 5587 5570 5554 5539 5525 5512 5500 5489 5479 5472 5466 5463 5460
5888 5886 5883 5882 5878 5875 5873 5870 5868 5864 5860 5856 5852 5846 5841 5835 5829 5823 5816 5809 5802 5793 5784 5774 5764 5752 5739 5726 5712 5697 5681 5663 5643 5623 5602 5583 5566 5550 5534 5518 5504 5490 5477 5465 5456 5448 5442 5438 5436
5886 5884 5881 5879 5876 5873 5870 5867 5863 5860 5856 5851 5847 5841 5836 5830 5824 5818 5811 5803 5794 5785 5775 5765 5753 5741 5728 5714 5698 5682 5664 5644 5623 5602 5582 5564 5548 5532 5515 5499 5484 5469 5456 5443 5431 5422 5415 5411 5409
5884 5882 5880 5877 5873 5870 5867 5863 5859 5856 5852 5847 5842 5837 5832 5825 5819 5812 5804 5796 5787 5777 5766 5755 5743 5730 5716 5702 5686 5668 5648 5627 5606 5584 5565 5547 5531 5514 5498 5481 5465 5449 5434 5419 5405 5393 5385 5380 5378
5883 5880 5877 5875 5871 5868 5864 5860 5856 5852 5848 5844 5839 5833 5827 5821 5814 5806 5798 5788 5778 5768 5757 5745 5733 5719 5705 5689 5672 5654 5633 5612 5590 5569 5550 5532 5515 5498 5481 5463 5447 5429 5412 5395 5378 5365 5354 5348 5345
5881 5879 5876 5873 5869 5865 5862 5858 5854 5850 5845 5841 5835 5829 5822 5815 5807 5799 5790 5781 5770 5760 5748 5736 5723 5709 5693 5677 5659 5639 5617 5595 5575 5555 5537 5519 5501 5483 5465 5447 5428 5409 5389 5371 5355 5339 5326 5318 5314
5880 5877 5874 5870 5867 5864 5861 5857 5852 5847 5842 5837 5831 5824 5817 5809 5801 5792 5783 5773 5763 5751 5739 5726 5712 5698 5682 5665 5646 5625 5604 5583 5562 5543 5525 5507 5488 5470 5451 5433 5413 5392 5371 5353 5337 5323 5309 5298 5291
5879 5876 5873 5869 5865 5862 5858 5854 5851 5844 5839 5834 5827 5820 5812 5804 5795 5786 5776 5766 5755 5743 5730 5717 5702 5687 5671 5653 5633 5612 5591 5570 5550 5532 5514 5496 5477 5458 5439 5420 5399 5378 5359 5342 5327 5313 5299 5287 5277
5879 5876 5873 5869 5865 5861 5856 5852 5848 5842 5836 5830 5823 5815 5807 5798 5789 5779 5769 5758 5747 5734 5721 5707 5692 5676 5660 5641 5622 5601 5580 5559 5540 5522 5505 5487 5468 5449 5429 5409 5388 5368 5349 5335 5321 5308 5295 5283 5273
5878 5876 5873 5868 5864 5860 5855 5850 5846 5840 5833 5827 5819 5811 5803 5793 5783 5773 5762 5751 5739 5726 5712 5698 5682 5666 5649 5631 5611 5590 5570 5550 5531 5514 5497 5479 5460 5441 5422 5402 5381 5361 5344 5330 5318 5307 5296 5285 5276
5876 5874 5871 5866 5862 5859 5853 5848 5844 5837 5830 5823 5816 5808 5798 5788 5778 5767 5755 5743 5731 5718 5704 5689 5674 5657 5640 5621 5601 5581 5561 5541 5523 5506 5488 5470 5452 5434 5415 5395 5374 5355 5339 5326 5316 5307 5297 5289 5281
5874 5871 5868 5865 5860 5856 5851 5846 5841 5833 5827 5820 5812 5803 5794 5783 5772 5760 5748 5736 5723 5710 5696 5681 5666 5649 5632 5613 5593 5573 5553 5534 5517 5499 5481 5464 5446 5427 5409 5389 5369 5351 5335 5323 5313 5306 5298 5291 5284
5873 5869 5866 5862 5857 5853 5849 5843 5837 5830 5824 5816 5808 5799 5789 5778 5767 5755 5742 5729 5716 5703 5689 5674 5658 5642 5625 5606 5586 5567 5547 5528 5511 5494 5476 5458 5441 5423 5405 5386 5366 5348 5332 5320 5310 5303 5296 5290 5285
5870 5867 5863 5858 5854 5849 5844 5842 5835 5828 5821 5813 5804 5794 5784 5773 5762 5749 5736 5723 5710 5696 5682 5668 5652 5635 5618 5599 5580 5561 5542 5524 5506 5489 5472 5455 5437 5420 5402 5384 5365 5347 5331 5318 5307 5300 5293 5288 5283
5867 5863 5860 5857 5852 5847 5842 5840 5831 5824 5816 5808 5800 5790 5780 5769 5757 5744 5731 5718 5704 5690 5676 5661 5646 5629 5612 5593 5575 5556 5537 5519 5502 5486 5469 5452 5435 5418 5400 5382 5364 5346 5330 5316 5305 5297 5290 5284 5279